This is the latest recevied weather packets stored in our database for station/object KD8FRE. If no packets are shown the sender has not sent any weather packets the latest 1 day(s).
| Time | Temp. | Humidity | Pressure | Rain* | Wind** | Luminosity | Snow |
|---|---|---|---|---|---|---|---|
| 1777972301 | 13.89° C | 81% | 1002.1 hPa | 0 mm | 2.68 m/s, 273° | 0 W/m² | - |
| 1777971998 | 13.89° C | 82% | 1001.8 hPa | 0 mm | 2.24 m/s, 238° | 0 W/m² | - |
| 1777971697 | 13.89° C | 82% | 1001.7 hPa | 0 mm | 4.47 m/s, 256° | 0 W/m² | - |
| 1777971394 | 13.89° C | 82% | 1001.8 hPa | 0 mm | 2.24 m/s, 262° | 0 W/m² | - |
| 1777971092 | 13.89° C | 82% | 1001.7 hPa | 0 mm | 1.79 m/s, 264° | 0 W/m² | - |
| 1777970789 | 13.89° C | 83% | 1001.7 hPa | 0 mm | 1.34 m/s, 157° | 0 W/m² | - |
| 1777970488 | 13.89° C | 82% | 1001.8 hPa | 0 mm | 4.02 m/s, 264° | 0 W/m² | - |
| 1777970185 | 13.89° C | 83% | 1001.7 hPa | 0 mm | 1.79 m/s, 237° | 0 W/m² | - |
| 1777969881 | 13.89° C | 83% | 1001.6 hPa | 0 mm | 2.24 m/s, 252° | 0 W/m² | - |
| 1777969577 | 13.89° C | 82% | 1001.1 hPa | 0 mm | 2.24 m/s, 236° | 0 W/m² | - |
| 1777969274 | 13.89° C | 83% | 1001 hPa | 0 mm | 0.45 m/s, 230° | 0 W/m² | - |
| 1777968970 | 13.89° C | 83% | 1001.3 hPa | 0 mm | 1.34 m/s, 203° | 0 W/m² | - |
| 1777968668 | 13.89° C | 83% | 1001 hPa | 0 mm | 0.45 m/s, 182° | 0 W/m² | - |
| 1777968363 | 14.44° C | 82% | 1001.1 hPa | 0 mm | 0.89 m/s, 256° | 0 W/m² | - |
| 1777968060 | 14.44° C | 82% | 1001.1 hPa | 0 mm | 2.68 m/s, 256° | 0 W/m² | - |
| 1777967756 | 14.44° C | 81% | 1001.1 hPa | 0 mm | 0.89 m/s, 268° | 0 W/m² | - |
| 1777967453 | 14.44° C | 81% | 1001 hPa | 0 mm | 1.79 m/s, 264° | 0 W/m² | - |
| 1777967150 | 14.44° C | 80% | 1001 hPa | 0 mm | 0.89 m/s, 254° | 0 W/m² | - |
| 1777966847 | 14.44° C | 80% | 1000.9 hPa | 0 mm | 3.13 m/s, 260° | 0 W/m² | - |
| 1777966544 | 14.44° C | 80% | 1000.7 hPa | 0 mm | 1.34 m/s, 267° | 0 W/m² | - |
| 1777966243 | 14.44° C | 80% | 1000.4 hPa | 0 mm | 0 m/s | 0 W/m² | - |
| 1777965938 | 14.44° C | 79% | 1000.4 hPa | 0 mm | 0.45 m/s, 312° | 0 W/m² | - |
| 1777965635 | 15° C | 79% | 1000.5 hPa | 0 mm | 0.89 m/s, 170° | 0 W/m² | - |
| 1777965336 | 15° C | 78% | 1000.4 hPa | 0 mm | 1.34 m/s, 243° | 0 W/m² | - |
| 1777965034 | 15° C | 77% | 1000.3 hPa | 0 mm | 0.89 m/s, 189° | 0 W/m² | - |
* Rain latest hour (hover to see other rain measurements)
** Current wind speed in m/s (hover to see current wind gust speed)